Wetbulb
59.63 57.47 55.88 56.78 56.00 54.31 53.31 52.73 52.38 53.90 55.78 56.61 58.80 60.24 61.61 63.24 64.27 65.13 67.34 68.97 69.90 70.44 72.36 72.66 73.79 74.44 74.61 74.97 74.80 73.99 72.57 74.09 74.18 72.81 73.62 74.99 75.03 75.47 75.99 76.24 76.86 77.39 77.44 77.11
57.10 54.76 57.62 55.54 53.92 53.46 53.60 52.52 53.02 54.33 55.57 55.33 58.66 60.45 62.52 64.26 63.88 64.39 64.74 66.10 68.13 69.96 71.67 72.62 72.59 73.92 73.96 74.43 74.87 74.94 74.91 74.27 74.39 74.21 74.36 75.21 76.11 76.46 76.67 76.87 77.59 78.24 77.78 77.79
54.40 55.57 55.35 53.39 53.36 53.17 54.24 52.87 52.55 52.04 54.27 54.91 53.89 58.04 61.15 63.96 65.20 65.84 66.51 66.49 66.55 66.89 69.39 72.18 72.82 73.39 73.92 73.56 74.71 74.91 75.42 75.66 75.29 76.22 76.21 75.76 79.26 78.36 78.76 77.72 77.54 77.34 77.95 77.64
55.13 57.85 54.43 53.29 52.82 54.19 51.99 54.46 52.76 52.38 52.70 50.84 53.87 51.84 59.15 61.84 62.75 64.23 66.22 67.41 67.40 67.56 67.61 71.32 72.64 73.03 73.80 74.22 74.67 75.63 76.03 75.96 76.19 76.31 76.23 75.90 75.25 76.10 74.80 75.52 76.09 76.71 77.84 77.73
51.81 52.54 52.48 52.16 53.55 54.64 53.03 55.06 53.70 53.48 53.04 52.04 53.51 54.50 57.88 61.24 59.89 61.80 64.89 67.49 68.83 69.61 68.92 68.81 71.38 73.13 74.18 74.61 74.81 75.52 76.11 76.53 76.95 77.06 77.89 75.51 76.83 74.16 74.90 75.33 76.87 77.42 77.57 78.30
53.80 56.05 54.49 54.48 55.04 55.28 55.58 54.24 54.96 54.50 52.33 49.32 53.36 54.41 55.43 57.71 58.97 61.33 64.05 66.73 69.11 70.07 70.28 70.58 70.93 72.23 73.58 74.82 74.52 74.75 75.54 76.14 76.76 76.63 76.69 76.71 76.11 76.05 74.99 75.94 75.83 76.65 74.92 75.97
52.93 53.64 55.40 55.60 53.65 55.92 54.68 53.26 49.31 46.91 47.24 47.84 54.76 55.39 55.86 59.61 61.00 62.09 63.01 65.16 68.46 70.47 70.80 70.84 70.46 70.89 72.19 73.63 74.32 73.92 74.78 75.28 76.59 76.25 76.04 76.10 76.04 76.48 76.11 77.64 74.86 75.80 74.15 74.73
52.03 50.22 55.03 56.81 55.81 54.80 54.81 54.03 50.29 44.08 47.76 48.66 54.23 53.53 56.33 61.34 62.69 64.01 64.55 65.40 66.93 69.13 70.80 71.17 72.25 72.34 72.62 73.02 74.37 74.71 74.33 74.79 76.25 76.22 76.46 77.38 76.88 75.92 76.17 76.43 75.67 74.96 74.83 75.31
52.78 52.59 57.50 56.73 56.55 56.75 54.61 53.39 55.68 49.61 51.13 48.99 53.69 57.19 60.20 61.77 61.67 62.68 63.35 64.47 64.80 66.75 69.24 70.66 71.67 72.65 73.56 74.00 73.16 74.82 75.19 75.21 75.68 76.11 76.34 76.58 76.98 76.65 76.68 77.91 77.12 76.35 77.73 76.35
55.32 52.66 56.87 57.71 58.77 57.44 56.04 56.43 52.46 53.04 46.83 45.85 50.37 54.04 56.25 58.28 59.16 60.98 61.87 63.28 64.55 65.67 67.20 69.52 71.04 71.81 73.22 74.15 74.41 74.07 75.13 75.16 75.73 76.41 76.48 76.46 76.78 77.15 77.32 77.40 77.10 77.29 77.24 77.78
56.06 54.87 55.46 57.78 56.02 55.95 56.77 55.83 55.88 54.84 53.17 48.64 47.55 52.96 60.82 59.01 59.51 59.42 60.94 62.76 64.27 65.23 66.12 66.87 68.54 70.43 71.85 73.49 74.13 74.33 74.90 74.72 75.26 75.63 76.55 76.40 76.61 76.97 77.30 76.91 77.14 77.35 77.47 77.49
56.58 55.54 52.76 54.13 56.92 58.86 58.13 56.92 56.61 52.19 50.91 54.98 52.08 53.37 60.89 60.55 60.05 60.34 60.68 61.97 63.17 64.82 65.88 66.62 67.15 68.13 68.71 69.62 69.67 71.34 73.05 73.22 74.18 75.82 76.06 76.00 76.64 76.59 76.42 76.38 76.72 77.24 77.06 77.50
57.21 55.32 51.91 52.24 55.48 57.05 56.20 57.50 56.99 56.16 55.66 52.55 49.99 53.61 60.90 60.50 59.73 60.57 59.97 61.35 62.18 62.67 63.92 64.65 66.15 66.70 67.71 67.36 66.95 67.28 68.93 69.50 71.90 71.80 69.93 73.22 75.81 75.66 76.02 76.57 76.87 77.32 77.27 77.21
62.08 56.72 54.83 50.33 53.41 56.59 54.26 55.52 56.50 55.25 52.17 52.85 52.91 56.39 58.43 58.84 58.53 58.83 58.96 60.36 60.79 61.74 62.74 63.74 63.90 64.80 65.96 67.09 68.57 69.02 69.01 69.24 71.55 71.55 71.06 70.29 70.80 70.93 71.16 72.02 73.06 74.84 76.62 77.30
58.82 54.98 56.36 55.28 54.94 55.68 55.35 54.49 54.49 54.03 54.89 51.73 53.26 53.30 58.99 58.73 58.16 58.13 58.94 59.59 60.31 60.66 61.52 62.04 62.73 63.67 64.76 65.54 66.58 67.40 68.67 70.31 71.07 70.96 70.74 70.06 70.63 71.14 70.53 70.43 70.75 71.23 71.45 72.13
57.74 55.44 56.51 53.46 54.72 54.84 53.15 54.23 54.38 54.08 54.04 53.84 53.26 53.59 59.35 58.45 59.30 58.49 58.46 59.31 59.22 60.67 61.04 61.62 62.05 62.66 63.17 64.14 64.96 66.02 66.92 67.79 69.51 70.25 70.27 71.35 70.64 70.75 70.83 70.60 70.83 70.84 70.30 71.04
56.40 56.35 54.21 51.95 53.50 52.56 50.40 54.11 54.43 54.71 55.07 53.62 50.89 56.15 58.07 56.69 57.17 58.11 58.70 58.77 58.43 59.63 59.76 59.72 60.36 61.33 62.41 63.17 64.14 64.30 65.78 67.10 68.06 69.47 70.08 70.89 71.29 70.71 70.87 71.14 71.11 71.18 70.90 70.77
55.25 56.61 55.66 53.00 52.74 46.06 53.00 56.11 55.77 53.46 54.18 55.80 55.57 56.17 56.86 57.22 58.81 59.44 59.44 58.50 57.62 58.62 59.06 59.84 60.54 61.26 62.30 62.90 63.31 64.22 65.17 66.11 67.15 68.35 69.41 70.42 70.78 71.06 71.28 71.26 70.93 71.23 71.55 71.41
56.38 56.21 52.30 49.84 49.79 51.14 50.40 53.29 53.25 52.94 52.36 56.29 55.38 55.94 56.97 57.79 57.98 57.27 58.22 58.05 58.59 59.33 60.07 60.63 61.10 61.24 61.78 62.17 63.25 63.42 63.68 65.12 66.19 66.55 67.83 68.30 68.85 70.14 70.71 70.77 71.48 71.94 71.54 71.39
54.37 56.51 53.55 50.88 47.06 44.42 52.62 55.35 56.88 56.31 49.36 57.13 56.74 56.44 56.02 56.27 51.38 53.10 57.53 59.02 59.13 60.07 60.45 59.25 58.89 59.70 59.59 59.54 60.37 60.98 62.41 62.94 63.99 65.94 66.62 67.38 67.96 69.23 70.23 70.85 71.46 72.40 71.96 70.91
50.91 52.07 49.85 50.30 47.67 50.85 55.51 56.48 57.38 48.13 51.67 57.58 57.30 56.67 55.69 54.04 54.99 56.64 59.11 59.12 59.75 58.05 57.75 59.53 59.02 57.92 58.11 58.22 58.50 58.05 60.29 61.37 62.96 63.87 65.50 66.01 67.13 67.79 69.57 70.74 71.59 71.92 71.61 71.68
51.20 49.47 48.91 50.31 47.88 46.12 57.61 55.98 51.62 56.95 58.58 57.51 57.07 56.77 55.13 55.46 56.16 58.09 58.50 58.08 57.69 57.10 56.97 57.57 56.84 57.73 57.20 57.60 56.90 56.41 57.01 59.92 61.41 62.40 63.27 64.54 65.86 66.40 67.68 70.08 70.96 71.33 71.92 71.02
50.52 54.24 53.78 52.60 52.94 57.31 59.22 58.15 59.52 58.25 57.37 57.26 57.14 57.02 54.97 54.48 56.97 57.38 56.74 56.44 56.53 56.78 56.09 55.97 55.17 55.11 56.21 56.51 56.73 54.89 56.94 57.62 58.00 58.67 60.67 62.94 64.59 65.67 67.23 69.45 70.28 68.82 70.87 70.79
55.11 55.89 54.68 53.36 55.59 57.07 58.40 58.87 59.21 58.73 57.96 57.86 57.62 55.63 55.61 56.02 56.30 56.14 55.34 55.41 56.02 56.19 53.86 54.46 53.49 52.55 52.81 54.90 55.31 55.04 56.22 57.50 57.84 57.59 59.06 62.02 63.19 64.11 66.50 68.43 67.42 66.90 68.62 67.93
56.99 56.70 55.39 54.37 56.53 57.34 58.06 58.90 58.98 58.53 58.12 56.81 56.34 55.91 55.53 55.36 54.95 54.22 54.21 55.39 56.49 55.72 55.19 53.96 52.41 51.61 52.07 54.06 53.34 54.14 55.35 56.57 56.70 57.81 58.84 61.16 62.83 64.00 65.49 68.34 66.52 66.31 68.56 65.22
57.47 55.92 53.37 52.16 58.98 58.43 58.44 59.63 59.92 58.33 56.68 55.92 55.07 55.04 54.80 53.68 52.87 53.68 54.44 56.22 55.01 54.91 54.98 53.13 52.58 51.77 52.09 52.48 53.20 53.88 54.32 53.79 54.01 56.02 58.01 60.00 61.03 64.64 65.65 66.61 65.59 57.56 54.91 51.49
MSLP
1006.95 1006.33 1005.30 1005.02 1005.98 1006.20 1006.15 1005.75 1005.39 1005.24 1006.07 1006.15 1006.95 1007.46 1008.18 1008.42 1008.05 1007.86 1008.13 1008.27 1008.43 1008.75 1009.14 1010.17 1010.97 1011.59 1012.25 1013.06 1014.14 1015.25 1015.93 1016.17 1016.83 1017.20 1016.88 1016.76 1016.67 1016.80 1016.97 1017.04 1017.38 1017.74 1017.98 1018.06
1006.58 1005.83 1005.46 1006.43 1006.56 1006.34 1005.84 1005.50 1004.87 1005.11 1006.03 1005.97 1006.73 1007.55 1008.54 1008.88 1009.10 1009.20 1009.04 1008.47 1008.11 1008.14 1008.49 1009.18 1010.24 1010.94 1011.70 1012.44 1013.40 1014.36 1015.07 1015.96 1016.35 1016.48 1016.82 1016.60 1016.50 1016.29 1016.47 1016.61 1016.99 1017.48 1017.63 1017.83
1005.61 1005.59 1006.43 1006.53 1006.12 1005.83 1005.12 1005.02 1005.01 1005.39 1005.59 1005.85 1006.32 1007.06 1008.17 1008.67 1009.33 1009.49 1009.39 1009.18 1008.68 1008.42 1007.87 1008.17 1009.19 1010.08 1010.88 1011.83 1012.72 1013.48 1014.33 1014.91 1015.59 1015.85 1016.45 1016.87 1017.03 1016.84 1016.83 1017.27 1017.03 1017.07 1017.29 1017.40
1005.73 1005.48 1006.34 1006.13 1005.71 1005.48 1004.58 1005.18 1005.47 1005.40 1005.15 1004.81 1005.78 1005.95 1008.02 1008.81 1009.28 1009.67 1009.55 1009.22 1008.80 1008.29 1007.58 1007.62 1008.03 1009.28 1010.09 1011.07 1011.93 1012.79 1013.70 1014.28 1014.75 1015.38 1015.51 1015.98 1015.95 1016.45 1015.92 1016.21 1016.16 1016.27 1016.75 1016.92
1005.25 1005.69 1005.81 1005.62 1005.15 1005.37 1004.83 1005.30 1005.26 1005.26 1004.89 1005.13 1005.35 1005.55 1008.32 1009.08 1009.37 1009.80 1009.94 1009.61 1009.08 1008.53 1008.13 1007.42 1007.49 1008.20 1009.32 1010.28 1011.12 1012.04 1013.05 1013.76 1014.13 1014.54 1014.77 1015.21 1015.84 1015.96 1015.96 1015.60 1015.77 1016.35 1016.16 1016.52
1005.37 1005.91 1005.90 1005.16 1005.20 1005.43 1005.29 1005.15 1004.65 1004.72 1004.42 1004.19 1005.68 1005.80 1008.70 1009.75 1010.76 1010.70 1010.51 1010.11 1009.59 1008.92 1008.17 1008.07 1007.84 1008.16 1008.78 1009.71 1010.85 1011.44 1012.30 1013.03 1013.78 1014.25 1014.62 1014.64 1014.70 1014.94 1014.72 1014.86 1015.20 1015.97 1015.72 1015.70
1004.77 1004.75 1005.00 1005.40 1004.92 1004.74 1005.03 1004.07 1002.74 1002.98 1003.37 1004.08 1006.06 1006.72 1009.66 1010.81 1011.48 1011.51 1011.14 1010.86 1010.46 1009.85 1009.28 1008.39 1008.40 1008.65 1009.02 1009.67 1010.63 1011.54 1012.17 1012.81 1013.21 1013.53 1013.77 1014.22 1014.44 1014.61 1014.66 1015.07 1015.23 1015.11 1014.67 1014.82
1003.52 1004.32 1004.49 1004.73 1004.33 1003.62 1003.81 1002.87 1002.33 1002.76 1002.76 1004.24 1006.36 1007.38 1009.82 1011.16 1011.77 1011.86 1011.78 1011.66 1011.44 1011.01 1010.50 1010.21 1009.50 1009.38 1009.56 1009.82 1010.39 1011.07 1011.70 1012.39 1012.67 1013.10 1013.37 1013.64 1013.89 1013.94 1013.90 1013.97 1014.15 1014.31 1014.56 1014.74
1003.52 1003.92 1004.82 1004.74 1004.54 1004.32 1003.67 1003.17 1003.17 1002.85 1003.97 1003.87 1005.88 1008.39 1009.88 1010.95 1011.75 1012.17 1012.23 1012.21 1012.09 1011.90 1011.61 1011.35 1011.16 1010.89 1010.11 1010.19 1010.48 1011.02 1011.49 1012.07 1012.26 1012.42 1012.95 1013.21 1013.43 1013.57 1013.10 1013.28 1013.44 1013.65 1013.87 1014.19
1004.07 1003.74 1004.32 1004.70 1004.66 1004.65 1004.01 1004.14 1003.15 1002.74 1002.93 1003.45 1005.19 1007.08 1008.06 1010.73 1011.87 1012.42 1012.67 1012.69 1012.80 1012.74 1012.56 1012.34 1012.13 1011.91 1011.47 1010.74 1010.72 1011.17 1011.50 1011.86 1011.92 1012.09 1012.29 1012.56 1012.77 1013.06 1013.18 1013.17 1013.22 1013.27 1013.27 1013.71
1004.24 1003.97 1004.16 1004.52 1004.38 1004.14 1004.12 1003.57 1003.78 1003.47 1003.88 1003.75 1004.61 1006.43 1009.58 1011.26 1012.35 1012.69 1013.08 1013.35 1013.40 1013.32 1013.31 1013.24 1013.16 1012.95 1012.79 1012.24 1011.78 1011.72 1011.94 1012.01 1011.97 1011.93 1011.81 1011.99 1011.93 1012.02 1012.29 1012.49 1012.69 1012.91 1013.06 1013.21
1004.86 1003.96 1003.72 1003.95 1005.61 1005.60 1005.03 1004.63 1004.32 1003.65 1004.01 1004.70 1006.03 1007.94 1010.58 1011.68 1012.65 1013.12 1013.49 1013.82 1013.94 1013.99 1013.94 1013.78 1013.70 1013.65 1013.71 1013.79 1013.83 1013.35 1013.04 1012.79 1012.49 1012.25 1012.16 1012.07 1012.01 1011.85 1011.53 1011.42 1011.56 1012.00 1012.31 1012.36
1005.24 1004.36 1004.32 1004.92 1005.50 1005.67 1005.15 1005.56 1005.34 1004.96 1005.10 1005.20 1006.46 1008.42 1010.90 1012.23 1012.82 1013.49 1013.80 1014.18 1014.29 1014.44 1014.45 1014.31 1014.27 1014.39 1014.37 1014.56 1014.78 1014.58 1014.36 1014.06 1013.64 1013.66 1013.36 1012.73 1012.48 1012.19 1011.85 1011.61 1011.44 1011.55 1011.63 1011.72
1005.98 1004.62 1004.41 1004.92 1005.69 1005.57 1005.81 1006.07 1006.27 1005.82 1005.39 1005.49 1006.36 1008.43 1011.04 1012.07 1012.84 1013.41 1013.94 1014.26 1014.39 1014.62 1014.72 1014.80 1014.76 1015.02 1015.08 1014.91 1014.74 1014.57 1014.32 1014.10 1013.55 1013.32 1013.29 1013.21 1013.05 1012.86 1012.52 1012.48 1012.02 1011.73 1011.44 1011.35
1005.64 1004.97 1005.86 1006.24 1006.72 1006.63 1006.59 1006.79 1006.99 1006.78 1006.95 1007.27 1007.42 1008.57 1010.18 1012.19 1013.04 1013.64 1014.02 1014.35 1014.46 1014.68 1014.94 1015.15 1015.22 1015.35 1015.31 1015.18 1015.05 1014.73 1014.26 1013.66 1013.29 1013.20 1013.02 1013.12 1013.08 1012.95 1012.75 1012.57 1012.27 1012.12 1011.89 1011.86
1006.10 1005.96 1006.56 1007.06 1007.54 1007.41 1007.41 1007.81 1008.00 1008.12 1008.29 1008.54 1008.92 1009.61 1011.47 1012.86 1013.52 1013.70 1014.01 1014.46 1014.66 1014.75 1015.16 1015.46 1015.55 1015.58 1015.49 1015.39 1015.13 1014.82 1014.38 1013.93 1013.42 1013.11 1012.84 1012.77 1012.90 1012.75 1012.40 1012.02 1011.74 1011.74 1011.59 1011.12
1006.30 1006.34 1006.91 1006.50 1007.85 1008.27 1008.07 1007.97 1008.43 1008.85 1009.39 1009.28 1009.57 1010.39 1012.13 1012.72 1013.41 1013.90 1014.27 1014.67 1014.95 1015.08 1015.56 1015.78 1015.80 1015.73 1015.63 1015.45 1015.23 1014.77 1014.32 1013.96 1013.52 1013.08 1012.75 1012.50 1012.37 1012.23 1011.98 1011.66 1011.52 1011.19 1010.84 1010.60
1006.73 1006.86 1007.03 1006.90 1008.43 1008.20 1008.57 1009.37 1009.61 1009.67 1010.05 1010.54 1011.18 1011.94 1012.88 1013.52 1014.08 1014.40 1014.73 1015.17 1015.56 1015.83 1016.01 1016.01 1015.87 1015.68 1015.49 1015.38 1015.12 1014.84 1014.41 1013.96 1013.43 1012.97 1012.49 1012.12 1011.87 1011.56 1011.33 1011.15 1011.00 1010.62 1010.23 1009.87
1007.20 1007.14 1007.07 1007.52 1007.68 1008.18 1009.37 1009.97 1010.15 1010.20 1010.08 1011.09 1011.69 1012.59 1013.33 1013.96 1014.34 1013.73 1015.10 1015.81 1016.13 1016.18 1016.18 1016.06 1015.93 1015.67 1015.47 1015.30 1014.94 1014.64 1014.23 1013.84 1013.30 1012.71 1012.32 1012.14 1011.78 1011.23 1010.86 1010.49 1010.08 1009.68 1009.32 1008.84
1007.51 1007.68 1007.47 1007.47 1007.53 1007.64 1008.82 1010.11 1010.98 1011.31 1010.67 1011.68 1012.59 1013.20 1013.80 1014.39 1014.11 1013.66 1015.27 1015.93 1016.10 1016.24 1016.37 1016.35 1016.27 1016.11 1015.62 1015.55 1015.21 1014.79 1014.13 1013.60 1013.08 1012.61 1012.32 1012.11 1011.63 1011.05 1010.45 1010.03 1009.58 1009.11 1008.94 1008.59
1007.70 1007.46 1007.25 1007.45 1007.85 1008.52 1009.91 1011.10 1011.72 1011.70 1012.10 1012.75 1013.39 1014.03 1014.61 1014.95 1015.36 1015.65 1015.83 1015.98 1016.30 1016.85 1016.91 1016.54 1016.08 1015.81 1015.91 1015.97 1015.67 1015.23 1014.51 1013.61 1013.15 1012.79 1012.39 1011.86 1011.25 1010.70 1010.10 1009.49 1008.97 1008.53 1008.38 1007.95
1007.56 1007.53 1007.44 1007.87 1008.40 1009.04 1010.63 1011.67 1011.68 1012.23 1012.96 1013.58 1014.29 1014.91 1015.44 1015.82 1015.96 1016.02 1016.12 1016.07 1016.35 1016.51 1016.61 1016.67 1016.44 1016.22 1016.28 1016.10 1015.83 1015.39 1014.83 1014.30 1013.78 1013.01 1012.30 1011.57 1010.98 1010.22 1009.32 1008.89 1008.40 1007.77 1007.55 1007.41
1008.38 1008.24 1007.85 1008.79 1009.04 1010.21 1010.98 1011.41 1012.20 1012.65 1013.31 1014.16 1014.82 1015.34 1015.99 1016.07 1016.11 1016.37 1016.35 1016.40 1016.58 1016.81 1017.03 1017.09 1016.94 1016.58 1016.37 1016.17 1015.90 1015.38 1014.87 1014.45 1013.87 1013.16 1012.19 1011.09 1010.41 1009.77 1009.18 1008.62 1008.10 1007.45 1006.99 1006.86
1009.23 1009.60 1008.92 1009.83 1010.57 1010.90 1011.50 1012.38 1012.95 1013.55 1013.98 1014.94 1015.53 1015.96 1016.25 1016.38 1016.58 1016.57 1016.53 1016.51 1016.60 1016.87 1017.18 1017.10 1017.00 1016.68 1016.45 1016.07 1015.78 1015.37 1014.78 1014.18 1013.40 1012.71 1011.88 1010.73 1009.74 1009.00 1008.42 1007.95 1007.06 1006.35 1006.47 1006.30
1009.00 1009.78 1009.42 1009.86 1010.84 1011.61 1012.06 1012.59 1013.26 1014.17 1014.88 1015.50 1016.15 1016.50 1016.76 1016.90 1016.86 1016.92 1016.76 1016.74 1016.79 1017.09 1017.01 1017.11 1017.03 1016.83 1016.54 1016.16 1015.74 1015.19 1014.54 1013.82 1013.04 1012.26 1011.38 1010.18 1008.99 1008.25 1007.61 1007.42 1006.78 1006.13 1005.84 1006.12
1009.18 1008.93 1009.25 1008.83 1009.79 1010.77 1010.96 1012.44 1013.50 1014.42 1015.20 1015.94 1016.39 1016.65 1017.04 1017.21 1017.26 1017.27 1017.06 1017.04 1017.29 1017.14 1016.99 1017.09 1017.04 1016.92 1016.52 1016.13 1015.49 1014.91 1014.48 1013.99 1013.17 1012.16 1011.08 1009.79 1008.95 1007.99 1007.56 1007.11 1006.57 1006.12 1006.17 1006.29
Wind_Speed
8 10 11 4 5 5 5 7 7 2 6 6 11 14 16 16 15 4 5 9 11 12 12 13 14 14 14 14 14 15 14 12 10 8 8 8 8 7 7 7 7 7 8 7
8 13 3 1 2 6 6 7 4 4 6 1 10 16 14 16 14 11 9 7 7 11 13 14 15 17 17 16 16 15 15 15 12 9 8 7 7 7 8 7 8 9 8 9
16 7 6 4 7 8 10 8 6 5 3 4 4 12 16 13 16 14 12 8 5 7 13 15 16 17 17 17 17 17 16 16 15 13 9 7 5 6 4 6 7 8 10 10
10 6 7 9 10 8 13 4 3 3 7 4 4 8 16 13 17 18 16 14 10 8 6 12 15 16 17 17 16 17 17 17 16 16 11 13 9 8 9 8 7 7 10 11
6 9 11 12 10 3 10 4 4 5 8 7 3 1 11 11 16 19 18 18 16 12 6 7 13 14 15 15 15 16 16 17 15 16 14 12 11 10 9 7 8 8 9 10
6 2 6 10 4 9 4 10 12 8 7 6 5 5 12 10 15 16 18 19 19 18 14 1 7 9 11 12 13 13 16 17 17 15 17 15 14 13 10 10 8 7 9 10
10 12 7 8 12 10 11 14 7 8 8 7 4 7 7 9 11 14 16 18 19 18 18 13 4 3 6 8 11 11 13 15 16 18 17 17 16 15 14 11 9 10 8 9
9 11 3 8 9 4 10 10 4 4 3 11 3 9 8 9 10 12 14 16 17 18 18 18 15 7 2 4 9 11 12 13 15 16 17 15 16 12 13 13 11 10 10 7
7 8 7 3 3 7 8 6 8 1 3 7 8 10 8 7 10 12 14 16 18 18 18 17 16 15 8 2 4 7 9 11 13 15 14 14 14 16 13 13 12 11 12 10
2 7 2 6 4 5 7 3 7 5 4 6 9 10 9 5 7 10 13 15 16 17 18 17 16 15 13 10 3 3 7 9 10 12 12 12 13 14 14 13 13 13 12 12
7 8 11 7 2 5 6 9 2 6 6 8 6 8 7 7 6 8 11 12 14 14 15 15 15 15 15 13 10 4 3 6 7 9 10 11 12 14 14 14 14 14 13 13
8 7 8 4 5 2 2 2 9 8 4 1 9 7 8 8 7 7 9 10 11 12 12 12 13 14 13 11 13 14 12 11 10 7 8 11 12 13 14 14 14 14 14 13
9 7 8 9 11 7 6 2 3 7 6 10 8 8 8 7 5 5 6 7 7 8 10 10 11 11 12 9 8 9 11 11 9 8 8 12 10 9 11 11 10 11 13 13
3 4 7 6 5 4 6 6 3 8 9 7 7 13 10 6 2 2 5 5 6 7 8 9 10 10 10 11 10 6 5 6 9 6 8 8 8 9 10 12 11 13 11 12
7 5 2 4 2 2 2 4 4 8 6 9 8 6 10 4 1 3 3 5 6 7 9 10 11 11 10 10 10 11 11 11 9 7 6 9 12 11 10 10 11 12 12 14
4 2 6 5 3 4 4 3 3 3 4 3 4 4 5 4 1 3 5 9 11 9 10 12 12 13 12 12 11 12 11 11 11 9 9 6 7 8 9 9 10 12 12 14
5 6 7 8 5 3 8 11 7 1 4 5 7 8 4 3 3 5 10 12 13 12 12 14 14 13 13 13 13 13 13 13 11 10 9 8 7 8 9 9 10 12 12 13
5 7 4 2 5 13 7 3 2 6 3 5 1 2 1 4 7 10 12 9 11 12 14 15 14 14 14 14 14 14 13 13 12 11 9 8 9 9 9 9 11 11 10 11
7 8 5 8 10 2 7 6 7 9 7 8 5 3 2 4 10 7 6 7 12 14 14 13 14 16 16 15 14 13 14 13 12 12 10 10 10 11 10 10 11 10 10 11
8 7 10 6 11 10 9 8 3 2 9 8 5 2 4 7 9 4 15 14 15 15 13 14 14 15 15 15 15 14 14 15 14 13 12 12 12 11 12 11 12 11 9 12
9 9 12 9 8 5 8 9 8 7 7 9 3 2 5 7 8 13 14 14 13 12 14 15 14 12 12 12 11 12 15 15 15 15 15 15 14 12 13 12 11 10 11 11
7 7 7 5 6 10 13 10 6 7 7 3 2 1 4 8 9 10 12 13 13 12 13 14 13 13 13 11 9 11 15 16 15 15 17 16 15 13 11 12 11 11 9 11
5 5 2 6 5 5 14 3 6 4 5 3 2 1 4 8 8 10 10 11 12 13 12 13 13 14 13 11 9 13 13 13 13 13 18 17 15 15 14 12 11 10 8 9
4 2 4 6 8 9 11 6 6 4 3 3 0 4 6 7 8 9 10 10 11 10 10 10 12 12 13 13 12 12 13 14 13 13 15 16 15 14 13 10 12 8 6 7
4 7 6 3 5 6 9 9 8 6 4 3 0 3 4 6 8 10 10 11 11 11 11 11 12 12 14 14 12 12 12 13 12 12 13 15 13 14 11 10 11 9 8 5
7 5 6 4 11 7 5 13 10 9 6 2 1 2 3 5 7 8 8 9 10 11 11 11 12 12 13 13 14 12 12 11 11 11 11 10 11 10 9 9 10 12 12 8
Wind_Direction
202 253 235 325 345 323 312 310 306 351 80 79 66 50 39 34 33 52 183 201 213 221 196 199 203 203 199 198 193 191 198 195 192 206 210 207 212 203 208 219 215 215 229 233
203 232 260 359 273 274 276 285 285 290 94 259 81 68 56 52 45 44 25 338 253 228 209 194 204 205 204 197 201 201 203 193 201 199 215 221 230 219 218 215 209 226 230 230
228 100 97 196 277 247 241 288 350 337 340 154 207 75 50 58 55 42 40 11 322 283 253 203 200 205 204 206 203 202 202 198 199 212 183 214 237 257 239 240 213 231 227 229
236 247 231 250 262 269 277 70 306 286 292 18 317 113 47 33 43 39 28 28 15 348 241 230 202 204 207 204 206 207 203 204 200 196 198 206 216 218 221 222 230 233 221 232
139 198 212 236 256 239 299 337 312 303 284 259 96 190 39 35 21 25 24 24 23 18 360 278 219 207 211 197 205 204 205 206 210 197 210 203 203 216 244 228 233 210 238 237
277 147 262 258 274 239 310 265 243 244 241 176 16 267 54 22 8 11 19 22 22 20 14 20 260 212 213 203 205 202 200 206 204 205 207 212 215 218 224 216 237 217 231 230
196 223 229 242 251 230 239 244 243 196 191 54 89 68 52 44 30 21 21 25 24 25 28 38 87 181 229 205 199 208 209 210 208 208 205 213 218 216 221 228 225 245 243 234
195 165 226 160 248 308 208 307 302 203 220 113 178 136 99 84 55 41 37 35 30 30 33 33 24 41 23 228 205 209 205 212 211 214 216 215 218 224 221 221 225 235 230 246
182 109 112 100 206 280 149 239 14 249 176 235 106 101 153 100 62 45 39 36 35 31 30 30 34 17 14 3 226 219 215 210 222 213 219 221 220 228 235 236 230 223 233 248
96 162 111 123 204 91 306 14 235 230 194 245 154 166 96 111 52 46 43 38 37 38 34 30 28 28 17 5 29 253 220 224 230 226 217 220 223 227 239 245 239 248 252 239
233 270 136 198 341 3 179 204 200 308 309 317 232 119 96 103 70 55 50 42 37 33 35 36 30 27 21 17 14 11 287 235 234 234 233 227 224 222 224 233 238 238 239 239
212 251 239 57 120 8 297 11 271 315 138 160 305 81 120 110 89 57 53 40 34 38 27 26 28 30 29 25 14 13 18 10 351 330 256 245 244 244 232 220 227 236 238 231
182 228 177 182 184 189 233 135 297 290 291 284 307 92 130 126 116 75 36 27 34 15 23 25 26 25 17 28 6 348 330 321 310 308 343 324 277 250 261 261 257 251 243 239
222 254 315 9 39 346 187 204 246 278 288 330 283 120 166 153 138 59 24 15 18 19 18 19 14 16 7 3 353 337 297 299 315 296 283 284 295 316 313 311 315 310 287 261
249 235 200 35 72 241 226 196 242 258 329 288 349 280 140 154 55 16 5 3 339 352 356 357 351 348 344 347 342 341 333 329 331 314 261 241 252 272 275 273 276 274 263 276
212 162 176 151 179 199 215 205 238 245 260 286 260 158 102 134 226 296 343 345 332 324 333 334 331 326 325 329 325 324 325 328 315 306 302 288 269 268 271 278 276 265 266 266
241 160 213 244 168 222 237 212 228 235 259 296 227 66 131 209 294 334 327 328 324 327 329 327 324 320 318 314 313 309 314 315 314 305 299 295 288 280 275 277 272 265 265 263
220 213 233 283 185 243 66 103 269 257 221 204 223 172 329 331 327 321 316 331 336 330 323 319 315 312 306 308 306 307 304 301 302 303 299 302 296 282 278 272 272 277 275 272
248 222 204 234 226 186 181 192 197 212 217 209 229 199 249 314 315 295 68 346 325 318 315 315 317 314 315 302 296 297 299 299 292 293 299 307 308 295 287 282 276 266 281 287
219 234 250 193 257 254 70 127 114 137 242 157 207 204 310 322 292 357 358 332 323 322 326 319 315 307 312 325 319 310 300 297 296 296 304 301 299 296 291 287 286 280 277 270
186 216 222 206 247 125 127 139 168 232 77 139 168 285 296 290 318 321 321 327 334 332 311 312 315 310 319 316 316 310 297 295 303 302 297 295 294 292 285 282 282 277 277 285
198 213 203 236 250 241 148 152 230 88 123 142 191 274 289 299 305 315 326 326 331 324 325 324 322 319 321 319 314 306 306 314 315 301 292 285 288 288 289 285 284 275 272 269
229 331 353 321 40 115 165 8 128 144 152 168 227 314 306 303 319 324 324 333 333 334 332 327 321 315 311 313 311 305 298 295 293 292 287 283 282 281 280 276 275 277 270 278
183 219 252 208 144 162 167 157 160 160 141 133 66 328 320 322 326 330 331 332 331 337 329 323 322 322 319 314 318 309 307 301 289 282 286 281 274 274 275 280 269 257 254 270
42 168 185 135 153 155 198 195 175 156 149 148 197 324 333 329 334 340 332 336 339 334 336 331 329 323 318 325 312 308 313 312 296 289 287 278 268 264 270 264 269 286 267 287
185 192 225 300 142 218 170 187 176 169 172 162 314 345 356 343 337 336 338 346 344 330 333 334 329 325 322 318 323 321 317 317 313 306 289 298 302 288 271 274 269 241 243 272